| time (UTC) | temp C | wind direction | speed KPH | gust KPH | rain 1hr cm | rain 24hr cm | rain mn cm | humidity % | barometer mb |
| 20260505190110 | 22 | 293 | 3.2 | 14.5 | 0.00 | 0.00 | 0.00 | 37 | 1008.9 |
| 20260505185607 | 22 | 341 | 3.2 | 14.5 | 0.00 | 0.00 | 0.00 | 45 | 1008.9 |
| 20260505185103 | 21 | 313 | 4.8 | 14.5 | 0.00 | 0.00 | 0.00 | 37 | 1008.9 |
| 20260505184600 | 22 | 316 | 3.2 | 11.3 | 0.00 | 0.00 | 0.00 | 35 | 1009.4 |
| 20260505184057 | 22 | 317 | 1.6 | 9.7 | 0.00 | 0.00 | 0.00 | 37 | 1009.4 |
| 20260505183553 | 22 | 336 | 3.2 | 9.7 | 0.00 | 0.00 | 0.00 | 37 | 1009.4 |
| 20260505183051 | 22 | 151 | 3.2 | 8.0 | 0.00 | 0.00 | 0.00 | 42 | 1009.4 |
| 20260505182547 | 22 | 314 | 3.2 | 12.9 | 0.00 | 0.00 | 0.00 | 37 | 1009.4 |
| 20260505182044 | 21 | 333 | 3.2 | 12.9 | 0.00 | 0.00 | 0.00 | 46 | 1009.4 |
| 20260505181541 | 21 | 314 | 4.8 | 9.7 | 0.00 | 0.00 | 0.00 | 37 | 1009.4 |
| 20260505181038 | 21 | 350 | 3.2 | 9.7 | 0.00 | 0.00 | 0.00 | 37 | 1009.4 |
| 20260505180533 | 21 | 335 | 1.6 | 6.4 | 0.00 | 0.00 | 0.00 | 40 | 1009.4 |
| 20260505180032 | 21 | 23 | 3.2 | 12.9 | 0.00 | 0.00 | 0.00 | 41 | 1009.4 |
| 20260505175526 | 21 | 337 | 1.6 | 12.9 | 0.00 | 0.00 | 0.00 | 40 | 1009.4 |
| 20260505175023 | 20 | 97 | 1.6 | 11.3 | 0.00 | 0.00 | 0.00 | 41 | 1009.7 |
| 20260505174520 | 20 | 89 | 1.6 | 11.3 | 0.00 | 0.00 | 0.00 | 42 | 1009.7 |
| 20260505174016 | 20 | 329 | 1.6 | 6.4 | 0.00 | 0.00 | 0.00 | 41 | 1009.4 |
| 20260505173513 | 20 | 133 | 3.2 | 9.7 | 0.00 | 0.00 | 0.00 | 39 | 1009.4 |
| 20260505173010 | 19 | 146 | 3.2 | 9.7 | 0.00 | 0.00 | 0.00 | 43 | 1009.7 |
| 20260505172508 | 18 | 170 | 3.2 | 12.9 | 0.00 | 0.00 | 0.00 | 40 | 1009.7 |
| 20260505172003 | 19 | 336 | 3.2 | 12.9 | 0.00 | 0.00 | 0.00 | 44 | 1009.7 |
| 20260505171459 | 18 | 267 | 1.6 | 11.3 | 0.00 | 0.00 | 0.00 | 47 | 1009.4 |
| 20260505170956 | 19 | 193 | 1.6 | 8.0 | 0.00 | 0.00 | 0.00 | 49 | 1009.4 |
| 20260505170453 | 20 | 245 | 1.6 | 8.0 | 0.00 | 0.00 | 0.00 | 45 | 1009.4 |
| 20260505165948 | 20 | 328 | 3.2 | 11.3 | 0.00 | 0.00 | 0.00 | 41 | 1009.4 |
| 20260505165444 | 19 | 198 | 4.8 | 11.3 | 0.00 | 0.00 | 0.00 | 38 | 1009.4 |
| 20260505164939 | 20 | 172 | 3.2 | 8.0 | 0.00 | 0.00 | 0.00 | 41 | 1009.4 |
| 20260505164436 | 20 | 175 | 3.2 | 14.5 | 0.00 | 0.00 | 0.00 | 39 | 1009.4 |
| 20260505163934 | 20 | 150 | 4.8 | 14.5 | 0.00 | 0.00 | 0.00 | 37 | 1009.4 |
| 20260505163433 | 20 | 179 | 3.2 | 9.7 | 0.00 | 0.00 | 0.00 | 37 | 1009.4 |
| 20260505162932 | 20 | 167 | 4.8 | 12.9 | 0.00 | 0.00 | 0.00 | 40 | 1009.4 |
| 20260505162427 | 20 | 195 | 6.4 | 16.1 | 0.00 | 0.00 | 0.00 | 38 | 1009.4 |
| 20260505161924 | 20 | 164 | 6.4 | 16.1 | 0.00 | 0.00 | 0.00 | 38 | 1009.4 |
| 20260505161421 | 19 | 141 | 4.8 | 12.9 | 0.00 | 0.00 | 0.00 | 41 | 1009.4 |
| 20260505160918 | 19 | 180 | 4.8 | 12.9 | 0.00 | 0.00 | 0.00 | 42 | 1009.4 |
| 20260505160416 | 18 | 198 | 6.4 | 12.9 | 0.00 | 0.00 | 0.00 | 43 | 1008.9 |
| 20260505153355 | 16 | 193 | 4.8 | 11.3 | 0.00 | 0.00 | 0.00 | 50 | 1008.9 |
| 20260505152852 | 16 | 206 | 4.8 | 11.3 | 0.00 | 0.00 | 0.00 | 50 | 1008.9 |
| 20260505152349 | 16 | 189 | 4.8 | 12.9 | 0.00 | 0.00 | 0.00 | 52 | 1008.9 |
| 20260505151843 | 15 | 166 | 4.8 | 12.9 | 0.00 | 0.00 | 0.00 | 53 | 1008.9 |
| 20260505151340 | 15 | 134 | 6.4 | 14.5 | 0.00 | 0.00 | 0.00 | 56 | 1008.9 |
| 20260505150837 | 15 | 198 | 6.4 | 14.5 | 0.00 | 0.00 | 0.00 | 58 | 1008.6 |
| 20260505150334 | 14 | 140 | 6.4 | 9.7 | 0.00 | 0.00 | 0.00 | 60 | 1008.6 |
| 20260505140253 | 10 | 131 | 1.6 | 8.0 | 0.00 | 0.00 | 0.00 | 73 | 1008.2 |
| 20260505130217 | 10 | 92 | 0.0 | 3.2 | 0.00 | 0.00 | 0.00 | 70 | 1007.1 |
| 20260505124707 | 10 | 110 | 1.6 | 6.4 | 0.00 | 0.00 | 0.00 | 69 | 1007.1 |
| 20260505124204 | 10 | 98 | 1.6 | 4.8 | 0.00 | 0.00 | 0.00 | 69 | 1006.8 |
| 20260505123659 | 10 | 97 | 1.6 | 4.8 | 0.00 | 0.00 | 0.00 | 69 | 1006.8 |
| 20260505123156 | 10 | 97 | 0.0 | 4.8 | 0.00 | 0.00 | 0.00 | 69 | 1006.5 |
| 20260505122653 | 10 | 127 | 0.0 | 0.0 | 0.00 | 0.00 | 0.00 | 69 | 1006.5 |
| 20260505122150 | 10 | 129 | 0.0 | 0.0 | 0.00 | 0.00 | 0.00 | 68 | 1006.5 |
| 20260505121647 | 10 | 69 | 0.0 | 0.0 | 0.00 | 0.00 | 0.00 | 68 | 1006.5 |
| 20260505121143 | 10 | 147 | 0.0 | 0.0 | 0.00 | 0.00 | 0.00 | 68 | 1006.0 |
| 20260505120639 | 10 | 118 | 0.0 | 1.6 | 0.00 | 0.00 | 0.00 | 68 | 1006.0 |
| 20260505120135 | 10 | 147 | 1.6 | 3.2 | 0.00 | 0.00 | 0.00 | 68 | 1005.7 |
| 20260505115630 | 10 | 127 | 1.6 | 3.2 | 0.00 | 0.00 | 0.00 | 68 | 1006.0 |
| 20260505115128 | 10 | 127 | 1.6 | 4.8 | 0.00 | 0.00 | 0.00 | 67 | 1005.7 |
| 20260505114624 | 10 | 123 | 1.6 | 4.8 | 0.00 | 0.00 | 0.00 | 67 | 1005.7 |
| 20260505114121 | 10 | 118 | 0.0 | 3.2 | 0.00 | 0.00 | 0.00 | 66 | 1005.7 |
| 20260505113617 | 11 | 119 | 0.0 | 3.2 | 0.00 | 0.00 | 0.00 | 66 | 1005.7 |
| 20260505113114 | 11 | 119 | 0.0 | 3.2 | 0.00 | 0.00 | 0.00 | 66 | 1005.7 |
| 20260505112610 | 11 | 122 | 0.0 | 1.6 | 0.00 | 0.00 | 0.00 | 65 | 1005.7 |
| 20260505112108 | 11 | 122 | 0.0 | 3.2 | 0.00 | 0.00 | 0.00 | 65 | 1005.3 |
| 20260505111602 | 11 | 122 | 0.0 | 3.2 | 0.00 | 0.00 | 0.00 | 65 | 1005.3 |
| 20260505111058 | 11 | 118 | 1.6 | 3.2 | 0.00 | 0.00 | 0.00 | 64 | 1005.3 |
| 20260505110555 | 11 | 118 | 0.0 | 3.2 | 0.00 | 0.00 | 0.00 | 64 | 1005.3 |
| 20260505102027 | 12 | 119 | 0.0 | 4.8 | 0.00 | 0.00 | 0.00 | 58 | 1004.6 |
| 20260505101526 | 12 | 119 | 0.0 | 4.8 | 0.00 | 0.00 | 0.00 | 57 | 1004.6 |
| 20260505101022 | 13 | 123 | 0.0 | 4.8 | 0.00 | 0.00 | 0.00 | 57 | 1004.6 |
| 20260505100519 | 13 | 166 | 0.0 | 0.0 | 0.00 | 0.00 | 0.00 | 56 | 1004.2 |
| 20260505100016 | 13 | 166 | 0.0 | 0.0 | 0.00 | 0.00 | 0.00 | 55 | 1004.2 |
| 20260505095512 | 13 | 166 | 0.0 | 0.0 | 0.00 | 0.00 | 0.00 | 55 | 1004.2 |
| 20260505095008 | 13 | 166 | 0.0 | 0.0 | 0.00 | 0.00 | 0.00 | 54 | 1004.2 |
| 20260505094505 | 13 | 166 | 0.0 | 1.6 | 0.00 | 0.00 | 0.00 | 53 | 1003.9 |
| 20260505094001 | 13 | 166 | 0.0 | 1.6 | 0.00 | 0.00 | 0.00 | 53 | 1003.9 |
| 20260505093457 | 13 | 166 | 1.6 | 4.8 | 0.00 | 0.00 | 0.00 | 53 | 1003.9 |
| 20260505092955 | 14 | 166 | 1.6 | 4.8 | 0.00 | 0.00 | 0.00 | 53 | 1003.9 |
| 20260505092452 | 14 | 151 | 1.6 | 4.8 | 0.00 | 0.00 | 0.00 | 52 | 1003.9 |
| 20260505091950 | 14 | 342 | 0.0 | 4.8 | 0.00 | 0.00 | 0.00 | 52 | 1003.4 |
| 20260505091447 | 15 | 342 | 0.0 | 3.2 | 0.00 | 0.00 | 0.00 | 51 | 1003.4 |
| 20260505090945 | 15 | 331 | 0.0 | 1.6 | 0.00 | 0.00 | 0.00 | 51 | 1003.4 |
| 20260505090443 | 15 | 318 | 0.0 | 4.8 | 0.00 | 0.00 | 0.00 | 51 | 1003.4 |
| 20260505085940 | 15 | 313 | 0.0 | 4.8 | 0.00 | 0.00 | 0.00 | 51 | 1003.4 |
| 20260505085438 | 15 | 314 | 1.6 | 6.4 | 0.00 | 0.00 | 0.00 | 50 | 1003.1 |
| 20260505084936 | 15 | 327 | 1.6 | 6.4 | 0.00 | 0.00 | 0.00 | 50 | 1003.1 |
| 20260505084434 | 15 | 343 | 1.6 | 6.4 | 0.00 | 0.00 | 0.00 | 50 | 1003.1 |
| 20260505083932 | 15 | 339 | 1.6 | 6.4 | 0.00 | 0.00 | 0.00 | 50 | 1003.1 |
| 20260505083429 | 15 | 307 | 0.0 | 1.6 | 0.00 | 0.00 | 0.00 | 50 | 1003.1 |
| 20260505082925 | 16 | 304 | 1.6 | 3.2 | 0.00 | 0.00 | 0.00 | 49 | 1003.1 |
| 20260505082421 | 16 | 304 | 1.6 | 4.8 | 0.00 | 0.00 | 0.00 | 48 | 1003.1 |
| 20260505081918 | 16 | 314 | 0.0 | 4.8 | 0.00 | 0.00 | 0.00 | 48 | 1003.1 |
| 20260505081415 | 16 | 312 | 1.6 | 3.2 | 0.00 | 0.00 | 0.00 | 48 | 1003.1 |
| 20260505080911 | 16 | 316 | 1.6 | 4.8 | 0.00 | 0.00 | 0.00 | 48 | 1003.1 |
| 20260505080408 | 16 | 338 | 1.6 | 4.8 | 0.00 | 0.00 | 0.00 | 47 | 1003.1 |
| 20260505075903 | 16 | 337 | 1.6 | 6.4 | 0.00 | 0.00 | 0.00 | 47 | 1003.1 |
| 20260505075400 | 16 | 339 | 3.2 | 8.0 | 0.00 | 0.00 | 0.00 | 47 | 1003.1 |
| 20260505074857 | 16 | 339 | 3.2 | 8.0 | 0.00 | 0.00 | 0.00 | 47 | 1003.1 |
| 20260505074354 | 16 | 337 | 3.2 | 8.0 | 0.00 | 0.00 | 0.00 | 47 | 1003.1 |
| 20260505073852 | 16 | 329 | 4.8 | 11.3 | 0.00 | 0.00 | 0.00 | 47 | 1003.1 |
| 20260505073349 | 16 | 330 | 4.8 | 11.3 | 0.00 | 0.00 | 0.00 | 48 | 1003.1 |
| 20260505072846 | 16 | 321 | 3.2 | 11.3 | 0.00 | 0.00 | 0.00 | 48 | 1003.1 |
| 20260505072342 | 16 | 335 | 3.2 | 6.4 | 0.00 | 0.00 | 0.00 | 48 | 1003.1 |
| 20260505071838 | 16 | 323 | 3.2 | 6.4 | 0.00 | 0.00 | 0.00 | 48 | 1003.1 |
| 20260505071335 | 16 | 327 | 1.6 | 6.4 | 0.00 | 0.00 | 0.00 | 47 | 1003.1 |
| 20260505070833 | 16 | 332 | 1.6 | 4.8 | 0.00 | 0.00 | 0.00 | 48 | 1003.1 |
| 20260505070329 | 16 | 306 | 1.6 | 4.8 | 0.00 | 0.00 | 0.00 | 47 | 1003.1 |
| 20260505065825 | 16 | 4 | 1.6 | 4.8 | 0.00 | 0.00 | 0.00 | 47 | 1002.8 |
| 20260505065322 | 16 | 317 | 0.0 | 3.2 | 0.00 | 0.00 | 0.00 | 47 | 1002.8 |
| 20260505064819 | 16 | 317 | 0.0 | 3.2 | 0.00 | 0.00 | 0.00 | 46 | 1002.8 |
| 20260505064316 | 16 | 325 | 1.6 | 8.0 | 0.00 | 0.00 | 0.00 | 46 | 1002.8 |
| 20260505063814 | 16 | 333 | 3.2 | 12.9 | 0.00 | 0.00 | 0.00 | 45 | 1002.8 |
| 20260505063310 | 17 | 346 | 4.8 | 12.9 | 0.00 | 0.00 | 0.00 | 45 | 1002.8 |
| 20260505062806 | 17 | 341 | 3.2 | 8.0 | 0.00 | 0.00 | 0.00 | 45 | 1002.8 |
| 20260505062304 | 17 | 323 | 1.6 | 4.8 | 0.00 | 0.00 | 0.00 | 44 | 1002.8 |
| 20260505061800 | 17 | 341 | 1.6 | 3.2 | 0.00 | 0.00 | 0.00 | 44 | 1002.8 |
| 20260505061259 | 17 | 327 | 0.0 | 4.8 | 0.00 | 0.00 | 0.00 | 44 | 1002.8 |
| 20260505060756 | 17 | 327 | 1.6 | 4.8 | 0.00 | 0.00 | 0.00 | 43 | 1002.8 |
| 20260505060253 | 18 | 258 | 0.0 | 3.2 | 0.00 | 0.00 | 0.00 | 41 | 1002.8 |
| 20260505055748 | 18 | 215 | 0.0 | 3.2 | 0.00 | 0.00 | 0.00 | 41 | 1002.8 |
| 20260505055245 | 18 | 215 | 1.6 | 3.2 | 0.00 | 0.00 | 0.00 | 40 | 1002.8 |
| 20260505054742 | 18 | 215 | 1.6 | 3.2 | 0.00 | 0.00 | 0.00 | 40 | 1002.8 |
| 20260505054239 | 19 | 223 | 1.6 | 3.2 | 0.00 | 0.00 | 0.00 | 39 | 1002.3 |
| 20260505053737 | 19 | 223 | 1.6 | 4.8 | 0.00 | 0.00 | 0.00 | 38 | 1002.3 |
| 20260505053228 | 20 | 343 | 0.0 | 4.8 | 0.00 | 0.00 | 0.00 | 38 | 1002.3 |
| 20260505052726 | 20 | 277 | 0.0 | 3.2 | 0.00 | 0.00 | 0.00 | 38 | 1002.3 |
| 20260505052222 | 20 | 343 | 1.6 | 8.0 | 0.00 | 0.00 | 0.00 | 37 | 1002.0 |
| 20260505051719 | 20 | 318 | 1.6 | 6.4 | 0.00 | 0.00 | 0.00 | 36 | 1002.0 |
| 20260505051217 | 20 | 320 | 3.2 | 9.7 | 0.00 | 0.00 | 0.00 | 35 | 1002.3 |
| 20260505050715 | 20 | 329 | 3.2 | 9.7 | 0.00 | 0.00 | 0.00 | 35 | 1002.3 |
| 20260505050213 | 21 | 323 | 3.2 | 8.0 | 0.00 | 0.00 | 0.00 | 35 | 1002.3 |
| 20260505041643 | 21 | 343 | 6.4 | 16.1 | 0.00 | 0.00 | 0.00 | 34 | 1002.3 |
| 20260505041140 | 21 | 318 | 4.8 | 14.5 | 0.00 | 0.00 | 0.00 | 33 | 1002.3 |
| 20260505040637 | 21 | 333 | 6.4 | 14.5 | 0.00 | 0.00 | 0.00 | 34 | 1002.3 |
| 20260505040134 | 21 | 333 | 4.8 | 12.9 | 0.00 | 0.00 | 0.00 | 34 | 1002.3 |
| 20260505035630 | 21 | 335 | 4.8 | 12.9 | 0.00 | 0.00 | 0.00 | 34 | 1002.0 |
| 20260505035127 | 21 | 337 | 4.8 | 12.9 | 0.00 | 0.00 | 0.00 | 33 | 1002.0 |
| 20260505034623 | 21 | 342 | 3.2 | 9.7 | 0.00 | 0.00 | 0.00 | 34 | 1002.0 |
| 20260505034120 | 21 | 5 | 3.2 | 9.7 | 0.00 | 0.00 | 0.00 | 34 | 1002.0 |
| 20260505033617 | 21 | 359 | 3.2 | 9.7 | 0.00 | 0.00 | 0.00 | 34 | 1002.0 |
| 20260505033116 | 21 | 27 | 3.2 | 8.0 | 0.00 | 0.00 | 0.00 | 36 | 1002.0 |
| 20260505032613 | 22 | 338 | 3.2 | 8.0 | 0.00 | 0.00 | 0.00 | 35 | 1002.0 |
| 20260505032109 | 22 | 356 | 1.6 | 8.0 | 0.00 | 0.00 | 0.00 | 36 | 1002.0 |
| 20260505031607 | 22 | 333 | 0.0 | 4.8 | 0.00 | 0.00 | 0.00 | 36 | 1002.0 |
| 20260505031103 | 23 | 333 | 0.0 | 1.6 | 0.00 | 0.00 | 0.00 | 35 | 1001.6 |
| 20260505030600 | 23 | 333 | 0.0 | 1.6 | 0.00 | 0.00 | 0.00 | 36 | 1001.6 |
| 20260505030055 | 23 | 333 | 0.0 | 3.2 | 0.00 | 0.00 | 0.00 | 34 | 1001.6 |
| 20260505025551 | 24 | 329 | 1.6 | 4.8 | 0.00 | 0.00 | 0.00 | 33 | 1001.6 |
| 20260505025051 | 24 | 326 | 3.2 | 9.7 | 0.00 | 0.00 | 0.00 | 32 | 1001.6 |
| 20260505024547 | 25 | 349 | 3.2 | 9.7 | 0.00 | 0.00 | 0.00 | 31 | 1001.6 |
| 20260505024045 | 25 | 348 | 3.2 | 12.9 | 0.00 | 0.00 | 0.00 | 31 | 1001.6 |
| 20260505023542 | 25 | 325 | 4.8 | 20.9 | 0.00 | 0.00 | 0.00 | 30 | 1001.6 |
| 20260505023039 | 25 | 342 | 6.4 | 20.9 | 0.00 | 0.00 | 0.00 | 30 | 1001.6 |
| 20260505022536 | 25 | 305 | 4.8 | 14.5 | 0.00 | 0.00 | 0.00 | 30 | 1001.3 |
| 20260505022033 | 25 | 338 | 6.4 | 14.5 | 0.00 | 0.00 | 0.00 | 30 | 1001.3 |
| 20260505021529 | 25 | 310 | 8.0 | 24.1 | 0.00 | 0.00 | 0.00 | 30 | 1001.3 |
| 20260505021026 | 25 | 335 | 8.0 | 24.1 | 0.00 | 0.00 | 0.00 | 30 | 1001.3 |
| 20260505020520 | 25 | 25 | 6.4 | 24.1 | 0.00 | 0.00 | 0.00 | 30 | 1001.3 |
| 20260505020018 | 25 | 356 | 6.4 | 20.9 | 0.00 | 0.00 | 0.00 | 30 | 1001.6 |
| 20260505015515 | 26 | 340 | 6.4 | 20.9 | 0.00 | 0.00 | 0.00 | 30 | 1001.6 |
| 20260505015012 | 26 | 342 | 6.4 | 16.1 | 0.00 | 0.00 | 0.00 | 29 | 1001.6 |
| 20260505014509 | 26 | 329 | 4.8 | 16.1 | 0.00 | 0.00 | 0.00 | 29 | 1001.6 |
| 20260505014006 | 26 | 308 | 6.4 | 14.5 | 0.00 | 0.00 | 0.00 | 29 | 1001.6 |
| 20260505013503 | 26 | 314 | 9.7 | 27.4 | 0.00 | 0.00 | 0.00 | 28 | 1001.6 |
| 20260505013000 | 26 | 340 | 9.7 | 27.4 | 0.00 | 0.00 | 0.00 | 28 | 1001.6 |
| 20260505012459 | 26 | 310 | 8.0 | 20.9 | 0.00 | 0.00 | 0.00 | 27 | 1001.6 |
| 20260505011955 | 26 | 306 | 9.7 | 22.5 | 0.00 | 0.00 | 0.00 | 27 | 1001.6 |
| 20260505011451 | 27 | 341 | 11.3 | 22.5 | 0.00 | 0.00 | 0.00 | 26 | 1001.6 |
| 20260505010948 | 27 | 313 | 11.3 | 29.0 | 0.00 | 0.00 | 0.00 | 26 | 1001.6 |
| 20260505010443 | 27 | 352 | 11.3 | 29.0 | 0.00 | 0.00 | 0.00 | 25 | 1001.6 |
| 20260505005940 | 27 | 326 | 9.7 | 24.1 | 0.00 | 0.00 | 0.00 | 24 | 1001.6 |
| 20260505005437 | 27 | 326 | 8.0 | 24.1 | 0.00 | 0.00 | 0.00 | 25 | 1001.6 |
| 20260505004935 | 27 | 318 | 8.0 | 20.9 | 0.00 | 0.00 | 0.00 | 25 | 1002.0 |
| 20260505004431 | 27 | 332 | 9.7 | 25.7 | 0.00 | 0.00 | 0.00 | 24 | 1002.0 |
| 20260505003928 | 27 | 22 | 9.7 | 25.7 | 0.00 | 0.00 | 0.00 | 24 | 1002.3 |
| 20260505003425 | 27 | 323 | 9.7 | 22.5 | 0.00 | 0.00 | 0.00 | 23 | 1002.0 |
| 20260505002921 | 26 | 308 | 11.3 | 22.5 | 0.00 | 0.00 | 0.00 | 23 | 1002.3 |
| 20260505002418 | 26 | 18 | 11.3 | 27.4 | 0.00 | 0.00 | 0.00 | 23 | 1002.3 |
| 20260505001916 | 26 | 33 | 11.3 | 27.4 | 0.00 | 0.00 | 0.00 | 22 | 1002.3 |
| 20260505001413 | 26 | 302 | 9.7 | 24.1 | 0.00 | 0.00 | 0.00 | 22 | 1002.3 |
| 20260505000910 | 26 | 346 | 9.7 | 25.7 | 0.00 | 0.00 | 0.00 | 22 | 1002.3 |
| 20260505000408 | 26 | 354 | 12.9 | 25.7 | 0.00 | 0.00 | 0.00 | 22 | 1002.3 |
| 20260504235904 | 26 | 23 | 12.9 | 25.7 | 0.00 | 0.00 | 0.00 | 22 | 1002.3 |
| 20260504235402 | 26 | 343 | 9.7 | 20.9 | 0.00 | 0.00 | 0.00 | 22 | 1002.3 |
| 20260504234858 | 26 | 295 | 8.0 | 22.5 | 0.00 | 0.00 | 0.00 | 22 | 1002.3 |
| 20260504234355 | 26 | 310 | 8.0 | 22.5 | 0.00 | 0.00 | 0.00 | 23 | 1002.3 |
| 20260504233852 | 26 | 316 | 8.0 | 24.1 | 0.00 | 0.00 | 0.00 | 23 | 1002.3 |
| 20260504233348 | 26 | 339 | 9.7 | 24.1 | 0.00 | 0.00 | 0.00 | 23 | 1002.3 |
| 20260504232844 | 26 | 320 | 8.0 | 16.1 | 0.00 | 0.00 | 0.00 | 24 | 1002.3 |
| 20260504232342 | 26 | 327 | 4.8 | 16.1 | 0.00 | 0.00 | 0.00 | 26 | 1002.3 |
| 20260504231838 | 26 | 304 | 8.0 | 22.5 | 0.00 | 0.00 | 0.00 | 26 | 1002.8 |
| 20260504231335 | 26 | 321 | 8.0 | 22.5 | 0.00 | 0.00 | 0.00 | 26 | 1002.8 |
| 20260504230831 | 26 | 308 | 8.0 | 24.1 | 0.00 | 0.00 | 0.00 | 26 | 1002.8 |
| 20260504230329 | 26 | 290 | 9.7 | 24.1 | 0.00 | 0.00 | 0.00 | 27 | 1002.8 |
| 20260504225828 | 26 | 3 | 8.0 | 22.5 | 0.00 | 0.00 | 0.00 | 27 | 1002.8 |
| 20260504225324 | 26 | 310 | 9.7 | 25.7 | 0.00 | 0.00 | 0.00 | 28 | 1002.8 |
| 20260504224821 | 26 | 6 | 11.3 | 25.7 | 0.00 | 0.00 | 0.00 | 27 | 1002.8 |
| 20260504224318 | 26 | 309 | 9.7 | 24.1 | 0.00 | 0.00 | 0.00 | 27 | 1002.8 |
| 20260504223815 | 26 | 349 | 8.0 | 22.5 | 0.00 | 0.00 | 0.00 | 28 | 1002.8 |
| 20260504223310 | 26 | 339 | 8.0 | 22.5 | 0.00 | 0.00 | 0.00 | 29 | 1003.1 |
| 20260504222807 | 26 | 358 | 6.4 | 20.9 | 0.00 | 0.00 | 0.00 | 29 | 1003.1 |
| 20260504222305 | 26 | 302 | 4.8 | 17.7 | 0.00 | 0.00 | 0.00 | 30 | 1003.1 |
| 20260504221802 | 26 | 333 | 6.4 | 19.3 | 0.00 | 0.00 | 0.00 | 29 | 1003.1 |
| 20260504221259 | 26 | 346 | 4.8 | 19.3 | 0.00 | 0.00 | 0.00 | 30 | 1003.4 |
| 20260504220755 | 26 | 358 | 6.4 | 17.7 | 0.00 | 0.00 | 0.00 | 30 | 1003.4 |
| 20260504220252 | 26 | 319 | 8.0 | 17.7 | 0.00 | 0.00 | 0.00 | 29 | 1003.4 |
| 20260504215750 | 26 | 346 | 6.4 | 14.5 | 0.00 | 0.00 | 0.00 | 30 | 1003.4 |
| 20260504215246 | 26 | 321 | 6.4 | 17.7 | 0.00 | 0.00 | 0.00 | 31 | 1003.9 |
| 20260504214742 | 25 | 328 | 6.4 | 17.7 | 0.00 | 0.00 | 0.00 | 31 | 1003.9 |
| 20260504214239 | 25 | 305 | 4.8 | 14.5 | 0.00 | 0.00 | 0.00 | 32 | 1003.9 |
| 20260504213735 | 25 | 2 | 4.8 | 17.7 | 0.00 | 0.00 | 0.00 | 31 | 1003.9 |
| 20260504213226 | 25 | 1 | 6.4 | 17.7 | 0.00 | 0.00 | 0.00 | 31 | 1003.9 |
| 20260504212723 | 25 | 316 | 4.8 | 16.1 | 0.00 | 0.00 | 0.00 | 32 | 1004.2 |
| 20260504212220 | 25 | 285 | 3.2 | 14.5 | 0.00 | 0.00 | 0.00 | 34 | 1004.2 |
| 20260504211717 | 25 | 294 | 6.4 | 19.3 | 0.00 | 0.00 | 0.00 | 33 | 1004.2 |
| 20260504211213 | 25 | 11 | 4.8 | 19.3 | 0.00 | 0.00 | 0.00 | 34 | 1004.6 |
| 20260504210711 | 25 | 357 | 4.8 | 14.5 | 0.00 | 0.00 | 0.00 | 33 | 1004.6 |
| 20260504210207 | 25 | 313 | 4.8 | 17.7 | 0.00 | 0.00 | 0.00 | 33 | 1004.6 |
| 20260504205704 | 25 | 6 | 6.4 | 17.7 | 0.00 | 0.00 | 0.00 | 34 | 1004.6 |
| 20260504205201 | 25 | 254 | 8.0 | 17.7 | 0.00 | 0.00 | 0.00 | 35 | 1004.6 |
| 20260504204700 | 25 | 342 | 9.7 | 17.7 | 0.00 | 0.00 | 0.00 | 34 | 1004.6 |
| 20260504204159 | 25 | 333 | 8.0 | 17.7 | 0.00 | 0.00 | 0.00 | 35 | 1004.9 |
| 20260504203657 | 25 | 305 | 8.0 | 22.5 | 0.00 | 0.00 | 0.00 | 37 | 1004.6 |
| 20260504203155 | 25 | 10 | 6.4 | 22.5 | 0.00 | 0.00 | 0.00 | 35 | 1004.9 |
| 20260504202654 | 25 | 341 | 4.8 | 14.5 | 0.00 | 0.00 | 0.00 | 37 | 1004.9 |
| 20260504202152 | 25 | 309 | 4.8 | 14.5 | 0.00 | 0.00 | 0.00 | 35 | 1004.9 |
| 20260504201649 | 25 | 300 | 4.8 | 17.7 | 0.00 | 0.00 | 0.00 | 36 | 1005.3 |
| 20260504201146 | 24 | 19 | 6.4 | 19.3 | 0.00 | 0.00 | 0.00 | 36 | 1005.3 |
| 20260504200643 | 24 | 318 | 4.8 | 20.9 | 0.00 | 0.00 | 0.00 | 36 | 1005.3 |
| 20260504200140 | 24 | 304 | 4.8 | 20.9 | 0.00 | 0.00 | 0.00 | 36 | 1005.3 |
| 20260504195636 | 24 | 343 | 4.8 | 20.9 | 0.00 | 0.00 | 0.00 | 35 | 1005.3 |
| 20260504195132 | 24 | 331 | 3.2 | 20.9 | 0.00 | 0.00 | 0.00 | 34 | 1005.3 |
| 20260504194629 | 24 | 333 | 3.2 | 14.5 | 0.00 | 0.00 | 0.00 | 37 | 1005.3 |
| 20260504194125 | 24 | 323 | 1.6 | 11.3 | 0.00 | 0.00 | 0.00 | 35 | 1005.7 |
| 20260504193622 | 24 | 291 | 3.2 | 16.1 | 0.00 | 0.00 | 0.00 | 41 | 1005.7 |
| 20260504193120 | 23 | 134 | 4.8 | 16.1 | 0.00 | 0.00 | 0.00 | 38 | 1005.7 |
| 20260504192618 | 23 | 333 | 4.8 | 12.9 | 0.00 | 0.00 | 0.00 | 37 | 1005.7 |
| 20260504192116 | 23 | 17 | 4.8 | 11.3 | 0.00 | 0.00 | 0.00 | 36 | 1005.7 |
| 20260504191614 | 23 | 318 | 4.8 | 11.3 | 0.00 | 0.00 | 0.00 | 36 | 1005.7 |
| 20260504191110 | 23 | 339 | 6.4 | 20.9 | 0.00 | 0.00 | 0.00 | 37 | 1006.0 |
| 20260504190606 | 23 | 323 | 6.4 | 20.9 | 0.00 | 0.00 | 0.00 | 35 | 1006.0 |